sat.trackr.live / text

‹ back to catalog

STARLINK-30832

NORAD 58354 · 2023-177D

PAYLOAD ACTIVE UNKNOWN

§ Identity

Operator
Country
US
Launch date
2023-11-18
Launch site
AFETR
Launch vehicle
Mass (kg)
RCS (m²)

Purposes: comms

External: N2YO · Heavens-Above · Gunter

§ Orbital elements

Epoch: 2026-05-24T17:58:20.250336Z

Period
94.27 min
Inclination
43.0029°
Eccentricity
0.0001521
Mean motion
15.27575530 rev/d
Perigee alt
482.0 km
Apogee alt
484.1 km
Semi-major
6,861.2 km
B*
1.0194e-4
RAAN
281.5717°
Arg perigee
270.2475°
Mean anomaly
89.8202°
Rev number
13,980

§ Raw data

STARLINK-308321 58354U 23177D   26144.74884549  .00002544  00000+0  10194-3 0  99932 58354  43.0029 281.5717 0001521 270.2475  89.8202 15.27575530139802

JSON: /api/v1/satellites/58354 · /tle

For live sub-satellite position, see the globe view (requires WebGL).

§ Visibility from observer

Set your observer location to see the next 7 days of passes ≥ 10°. The values pass through the URL so the page stays shareable.

No JS? Fill the form by hand. The geolocation button needs JavaScript.